Regional Weather Roundup
Issued by NWS

Home | Current Version | Previous Version | Text Only | Print | Product List | Glossary On
Versions: 1 2 3 4 5 6 7 8 9 10 11 12 13 14 15 16 17 18 19 20 21 22 23 24 25 26 27 28 29 30 31 32 33 34 35 36 37 38 39 40 41 42 43 44 45 46 47 48 49 50
000
ASUS45 KPSR 031510
RWRAZ

ARIZONA REGIONAL HOURLY WEATHER ROUNDUP
NATIONAL WEATHER SERVICE PHOENIX AZ
800 AM MST TUE MAR 03 2015

NOTE: FAIR INDICATES FEW OR NO CLOUDS BELOW 12,000 FEET WITH NO
SIGNIFICANT WEATHER AND/OR OBSTRUCTIONS TO VISIBILITY.

AZZ001>003-036-031600-
NORTHWEST ARIZONA

CITY           SKY/WX    TMP DP  RH WIND       PRES   REMARKS
BULLHEAD CITY  SUNNY     46  43  87 SE3       29.96R
KINGMAN        SUNNY     34  31  88 CALM      29.92S
$$

AZZ004>008-015-016-018-031600-
NORTH CENTRAL ARIZONA

CITY           SKY/WX    TMP DP  RH WIND       PRES   REMARKS
GRAND CANYON   MOSUNNY   24  23  96 CALM      29.89S
PRESCOTT       PTSUNNY   36  32  85 CALM      29.91S
FLAGSTAFF      NOT AVBL
PAYSON         CLOUDY    36  34  93 CALM      29.94S
$$

AZZ009>014-017-031600-
NORTHEAST ARIZONA

CITY           SKY/WX    TMP DP  RH WIND       PRES   REMARKS
WINSLOW        CLOUDY    33  31  92 SE5       29.93R WCI  29
SAINT JOHNS    SUNNY     35  29  78 S5        29.91F WCI  31
WINDOW ROCK    CLOUDY    32  27  81 SW9       29.90S WCI  24
SHOW LOW       MOSUNNY   27  27 100 CALM      29.94F
$$

AZZ023-031600-
GREATER PHOENIX AREA

CITY           SKY/WX    TMP DP  RH WIND       PRES   REMARKS
PHOENIX        MOSUNNY   48  48 100 SW5       29.92R FOG
BUCKEYE        MOSUNNY   46  46 100 SE6       29.94S
GLENDALE       PTSUNNY   50  48  93 CALM      29.93S
LUKE AFB       MOSUNNY   48  45  88 N2        29.92S
DEER VALLEY    SUNNY     47  44  90 CALM      29.92R
SCOTTSDALE     PTSUNNY   48  46  93 CALM      29.94S
MESA-FALCON    PTSUNNY   45  46 100 CALM      29.92S
MESA-GATEWAY   MOSUNNY   46  45  93 SE5       29.94S
CHANDLER       MOSUNNY   46  46 100 CALM      29.93S
$$

AZZ027-028-031600-
SOUTHWEST MARICOPA COUNTY AND PINAL COUNTY

CITY           SKY/WX    TMP DP  RH WIND       PRES   REMARKS
CASA GRANDE    CLOUDY    43  39  87 CALM      29.94S VSB<1/4
GILA BEND      PTSUNNY   48  48 100 E1        29.93R
$$

AZZ503-504-507>509-031600-
SOUTHEAST ARIZONA

CITY           SKY/WX    TMP DP  RH WIND       PRES   REMARKS
TUCSON         SUNNY     48  44  86 VRB5      29.94S
DAVIS-MONTHAN  SUNNY     47  47 100 S3        29.92S
NOGALES        SUNNY     45  41  86 E6        29.93R
SIERRA VISTA   PTSUNNY   45  41  87 NE7       29.93R
DOUGLAS        CLOUDY    45  43  93 N7        29.93F
SAFFORD        MOSUNNY   45  41  86 CALM      29.92S
$$

AZZ020-021-025-026-031-031600-
SOUTHWEST ARIZONA

CITY           SKY/WX    TMP DP  RH WIND       PRES   REMARKS
YUMA           MOSUNNY   51  47  86 N5        29.93R
$$

CAZ031-033-041-043-047-048-061-031600-
SOUTHERN CALIFORNIA

CITY           SKY/WX    TMP DP  RH WIND       PRES   REMARKS
DOWNTOWN L.A.  SUNNY     49  43  80 CALM      29.94S
L.A. AIRPORT   MOSUNNY   49  43  80 CALM      29.95R
SAN DIEGO      PTSUNNY   52  42  69 NE3       29.94S
BURBANK        SUNNY     43  37  79 CALM      29.93R
ONTARIO        MOSUNNY   45  37  73 CALM      29.94R
RIVERSIDE      SUNNY     41  38  89 CALM      29.95R
PALM SPRINGS   SUNNY     47  38  71 CALM      29.95R
EL CENTRO NAS  MOSUNNY   45  41  86 VRB5      29.94R
IMPERIAL       SUNNY     46  42  86 SW3       29.93R
BLYTHE         SUNNY     46  44  93 N5        29.93R
NEEDLES        SUNNY     48  42  80 NW3       29.94R
$$

NVZ020-UTZ003-031600-
SOUTHERN NEVADA-UTAH

CITY           SKY/WX    TMP DP  RH WIND       PRES   REMARKS
LAS VEGAS      MOSUNNY   43  35  73 S7        29.89R
SALT LAKE CITY LGT RAIN  36  32  85 NW3       29.77S
$$

NMZ009-TXZ055-031600-
NEW MEXICO-WEST TEXAS

CITY           SKY/WX    TMP DP  RH WIND       PRES   REMARKS
ALBUQUERQUE    PTSUNNY   40  28  62 N10       29.92F WCI  33
EL PASO        LGT RAIN  53  48  83 CALM      29.90R
$$


........................KEY........................
SKY/WX - SKY CONDITION/WEATHER
TMP    - TEMPERATURE IN FAHRENHEIT
DP     - DEW POINT IN FAHRENHEIT
RH     - RELATIVE HUMIDITY IN PERCENT
WIND   - DIRECTION AND SPEED IN MILES PER HOUR (MPH)
VRB    - VARIABLE WIND DIRECTION
PRES   - MEAN SEA LEVEL PRESSURE IN INCHES OF MERCURY
         F - FALLING PRESSURE   R - RISING PRESSURE
         S - STEADY PRESSURE
VSB    - VISIBILITY IN MILES
HX     - HEAT INDEX IN FAHRENHEIT
WCI    - WIND CHILL INDEX IN FAHRENHEIT
TC     - TEMPERATURE IN CELSIUS WHICH IS ALSO KNOWN AS
         TEMPERATURE IN CENTIGRADE
AFB    - AIR FORCE BASE
         LUKE AFB IS LUKE AIR FORCE BASE
         DAVIS-MONTHAN IS DAVIS-MONTHAN AIR FORCE BASE
NAS    - NAVAL AIR STATION
         EL CENTRO NAS IS EL CENTRO NAVAL AIR STATION
N/A    - NOT AVAILABLE



USA.gov is the U.S. government's official web portal to all federal, state and local government web resources and services.